Torna al catalogo

STARLINK-34254

AttivoComunicazioniVLEO
NORAD 64136·PAYLOAD·🇺🇸 United States

Lanciato May 24, 2025 da Cape Canaveral Space Force Station

Loading…

Prossimi Passaggi (prossime 24 ore)

TLE

AggiornatoSource: CelesTrak SupGP

Epoca: Sep 14, 2026, 21:08 UTC

1 64136C 25111P   26257.88104167  .00017173  00000+0  62214-3 0  2570
2 64136  42.9997  89.1120 0001358 272.8930   4.2201 15.27563367    16

Traccia STARLINK-34254 in tempo reale con AllMySat

Download on the App Store